Provincetown, Massachusetts, United States (02657)
Lat: 42.06N, Lon: 70.18W
Wx Zone: MAZ022
Local Info
Past Weather Observations for Today

NOTE: This archive is for the closest National Weather Service station to Provincetown. Information may differ from the station used for current weather conditions.

Click here for Long-term Archive

Time Weather Temperature Dewpoint Humidity Pressure Winds Precip Visibility
11:55
Overcast
41°F / 5°C 36°F / 2°C 81% 29.68 in
(1005 mb)
NE 8.1 mph
(NE 13 kph)
- 10SM
11:35
Overcast
41°F / 5°C 36°F / 2°C 81% 29.71 in
(1006 mb)
NE 8.1 mph
(NE 13 kph)
- 10SM
11:15
Overcast
41°F / 5°C 36°F / 2°C 81% 29.71 in
(1006 mb)
NE 8.1 mph
(NE 13 kph)
- 10SM
10:55
Overcast
39°F / 4°C 37°F / 3°C 93% 29.71 in
(1006 mb)
N 5.8 mph
(N 9 kph)
- 10SM
10:35
Overcast
39°F / 4°C 37°F / 3°C 93% 29.71 in
(1006 mb)
N 6.9 mph
(N 11 kph)
- 10SM
10:15
Overcast
39°F / 4°C 36°F / 2°C 87% 29.71 in
(1006 mb)
N 5.8 mph
(N 9 kph)
- 10SM
09:55
Overcast
39°F / 4°C 37°F / 3°C 93% 29.71 in
(1006 mb)
N 6.9 mph
(N 11 kph)
- 10SM
09:35
Mostly Cloudy
39°F / 4°C 37°F / 3°C 93% 29.71 in
(1006 mb)
N 5.8 mph
(N 9 kph)
- 8SM
09:15
Mostly Cloudy
39°F / 4°C 36°F / 2°C 87% 29.71 in
(1006 mb)
N 6.9 mph
(N 11 kph)
- 8SM
08:55
Mostly Cloudy
39°F / 4°C 36°F / 2°C 87% 29.71 in
(1006 mb)
N 9.2 mph
(N 15 kph)
- 6SM
08:35
Overcast
39°F / 4°C 36°F / 2°C 87% 29.71 in
(1006 mb)
N 6.9 mph
(N 11 kph)
- 7SM
08:15
Overcast
39°F / 4°C 36°F / 2°C 87% 29.71 in
(1006 mb)
N 9.2 mph
(N 15 kph)
- 7SM
07:55
Overcast
39°F / 4°C 36°F / 2°C 87% 29.71 in
(1006 mb)
N 12.7 mph
(N 20 kph)
- 5SM
07:35
Overcast
39°F / 4°C 37°F / 3°C 93% 29.71 in
(1006 mb)
N 11.5 mph
(N 19 kph)
- 8SM
07:15
Overcast
39°F / 4°C 36°F / 2°C 87% 29.71 in
(1006 mb)
N 10.4 mph
(N 17 kph)
- 3SM
06:55
Overcast
39°F / 4°C 36°F / 2°C 87% 29.74 in
(1007 mb)
NNW 11.5 mph
(NNW 19 kph)
- 3SM
06:35
Overcast
39°F / 4°C 37°F / 3°C 93% 29.71 in
(1006 mb)
NNW 10.4 mph
(NNW 17 kph)
- 5SM
06:15
Overcast
39°F / 4°C 37°F / 3°C 93% 29.71 in
(1006 mb)
N 10.4 mph
(N 17 kph)
- 5SM
05:55
Overcast
39°F / 4°C 37°F / 3°C 93% 29.68 in
(1005 mb)
N 10.4 mph
(N 17 kph)
- 5SM
05:35
Overcast
39°F / 4°C 36°F / 2°C 87% 29.65 in
(1004 mb)
N 12.7 mph
(N 20 kph)
- 7SM
05:15
Overcast
39°F / 4°C 37°F / 3°C 93% 29.68 in
(1005 mb)
N 10.4 mph
(N 17 kph)
- 6SM
04:55
Overcast
39°F / 4°C 36°F / 2°C 87% 29.65 in
(1004 mb)
N 10.4 mph
(N 17 kph)
- 5SM
04:35
Overcast
39°F / 4°C 37°F / 3°C 93% 29.65 in
(1004 mb)
N 10.4 mph
(N 17 kph)
- 2 1/2SM
04:15
Overcast
39°F / 4°C 37°F / 3°C 93% 29.65 in
(1004 mb)
N 9.2 mph
(N 15 kph)
- 3SM
03:55
Overcast
41°F / 5°C 36°F / 2°C 81% 29.65 in
(1004 mb)
N 10.4 mph
(N 17 kph)
- 1 1/2SM
03:35
Overcast
41°F / 5°C 37°F / 3°C 87% 29.62 in
(1003 mb)
N 8.1 mph
(N 13 kph)
- 3/4SM
03:15
Overcast
39°F / 4°C 37°F / 3°C 93% 29.62 in
(1003 mb)
N 8.1 mph
(N 13 kph)
- 1/2SM
02:55
Overcast
41°F / 5°C 37°F / 3°C 87% 29.62 in
(1003 mb)
N 8.1 mph
(N 13 kph)
- 3/4SM
02:35
Overcast
41°F / 5°C 37°F / 3°C 87% 29.62 in
(1003 mb)
NNE 8.1 mph
(NNE 13 kph)
- 3/4SM
02:15
Overcast
41°F / 5°C 37°F / 3°C 87% 29.62 in
(1003 mb)
N 6.9 mph
(N 11 kph)
- 1 1/2SM
01:55
Overcast
41°F / 5°C 37°F / 3°C 87% 29.62 in
(1003 mb)
N 6.9 mph
(N 11 kph)
- 2 1/2SM
01:35
Overcast
41°F / 5°C 37°F / 3°C 87% 29.62 in
(1003 mb)
N 9.2 mph
(N 15 kph)
- 1 1/2SM
01:15
Overcast
41°F / 5°C 37°F / 3°C 87% 29.62 in
(1003 mb)
NNE 8.1 mph
(NNE 13 kph)
- 1 1/4SM
00:55
Overcast
43°F / 6°C 37°F / 3°C 81% 29.65 in
(1004 mb)
N 6.9 mph
(N 11 kph)
- 1 3/4SM
00:35
Overcast
43°F / 6°C 37°F / 3°C 81% 29.65 in
(1004 mb)
NNE 6.9 mph
(NNE 11 kph)
- 1 3/4SM
00:15
Overcast
43°F / 6°C 39°F / 4°C 87% 29.65 in
(1004 mb)
N 9.2 mph
(N 15 kph)
- 1 3/4SM
Time Weather Temperature Dewpoint Humidity Pressure Winds Precip Visibility


Weather for websites

WeatherForYou.com, LLC is not responsible for any damages or problems caused by this service. Current weather conditions are obtained from the closest station including government and personal stations which may have varying degrees of accuracy. Weather forecasts are derived from the NOAA NDFD. Like all things, this site belongs to Jesus Christ... He just trusts me to maintain it. If you have any questions or comments email webmaster@weatherforyou.com

Copyright © 2015, WeatherForYou.com LLC. All rights reserved.